Vorticity
nan nan nan nan nan nan nan nan nan nan nan nan nan nan nan nan nan nan nan nan nan nan nan nan nan nan nan nan nan nan nan nan nan nan nan nan nan nan nan nan nan nan nan nan nan nan nan nan nan nan nan nan nan nan nan nan nan nan nan nan nan nan nan nan nan nan nan nan nan nan nan nan nan nan nan nan nan nan nan nan nan nan nan nan nan nan
nan 8 9 10 11 10 9 10 9 8 7 7 8 9 9 9 10 12 13 13 12 11 12 13 12 11 8 12 15 14 11 11 10 9 8 8 8 7 7 7 7 7 7 7 8 8 9 10 11 11 11 10 10 10 9 7 6 5 5 7 9 11 12 13 11 10 9 9 9 10 9 8 7 7 7 6 6 6 6 6 6 6 6 6 7 nan
nan 9 10 11 11 9 9 10 10 9 9 9 10 11 10 9 10 10 12 13 12 11 12 15 16 16 13 15 20 17 14 12 11 10 9 8 7 7 7 7 7 7 7 7 8 8 9 10 11 11 11 12 12 12 12 11 10 11 12 14 15 17 18 19 18 16 16 16 14 13 12 10 8 7 7 7 7 7 7 7 7 7 7 7 7 nan
nan 9 10 10 10 9 9 10 11 11 12 12 12 13 12 11 11 11 11 11 11 9 10 13 16 18 18 19 23 24 19 13 11 10 9 8 7 7 7 7 7 6 6 6 7 7 8 9 10 10 11 11 12 14 15 16 17 19 20 21 20 19 19 19 19 18 18 18 15 14 12 10 9 8 8 8 8 8 8 7 7 7 7 7 7 nan
nan 10 10 9 10 10 10 10 11 12 12 12 13 13 13 12 12 11 10 10 10 9 8 9 12 15 18 22 27 28 22 14 11 10 9 8 8 8 7 7 7 6 6 6 6 7 7 8 9 9 10 10 11 13 15 17 19 21 21 20 17 15 14 13 13 14 13 13 12 11 9 9 9 9 9 9 9 9 8 7 6 6 6 6 7 nan
nan 11 9 9 9 10 10 10 11 11 12 11 11 11 12 12 12 11 9 9 9 9 8 8 9 10 15 23 29 28 20 14 11 10 9 9 8 8 7 7 7 6 6 6 6 7 7 7 8 8 8 9 10 11 13 15 16 17 16 14 12 10 8 8 8 8 8 8 8 8 8 8 8 8 9 9 9 8 8 7 6 6 5 5 6 nan
nan 10 9 8 8 9 9 10 10 10 10 10 9 8 8 8 9 9 10 10 10 9 9 9 8 8 13 21 27 24 17 11 9 8 8 8 7 7 7 7 7 6 6 6 6 6 7 6 6 6 7 7 8 8 10 11 12 12 11 10 9 8 7 7 7 6 6 7 7 7 7 7 7 7 7 8 7 7 8 7 7 6 6 5 5 nan
nan 9 9 8 8 8 9 10 10 10 9 9 8 7 6 6 6 7 8 9 10 11 10 9 8 8 10 16 20 20 15 9 6 6 6 5 6 6 7 6 6 6 6 6 6 6 6 5 5 5 5 5 6 6 7 8 9 9 9 8 7 7 6 6 6 6 6 5 6 5 5 5 5 5 5 5 6 6 7 8 8 7 7 6 6 nan
nan 8 9 9 8 8 9 11 12 11 9 8 8 8 7 6 5 6 5 6 8 10 11 10 8 7 7 11 14 18 15 11 10 11 9 8 8 8 8 6 5 5 5 5 5 5 5 5 5 4 4 4 4 5 6 7 8 8 8 7 6 6 6 5 5 5 5 5 5 5 4 4 4 4 4 4 5 5 6 7 8 8 8 8 7 nan
nan 10 10 10 10 9 9 11 13 13 10 8 8 9 9 8 7 6 5 5 5 7 9 10 10 8 6 8 11 14 13 11 12 14 13 14 16 13 9 7 7 8 7 5 5 5 5 5 5 4 4 3 4 4 5 6 6 7 6 6 5 5 5 5 5 5 5 4 4 4 4 4 4 4 4 4 5 5 6 7 7 8 8 8 8 nan
nan 12 11 11 10 10 10 11 12 13 12 9 9 9 10 10 9 8 7 6 5 5 7 9 9 9 8 7 8 10 10 8 5 6 9 12 14 12 10 11 12 12 9 6 6 5 5 5 6 6 6 5 5 4 4 5 5 5 5 5 4 4 4 4 4 4 4 4 4 4 4 4 4 4 4 4 5 5 6 6 7 8 8 9 9 nan
nan 13 11 10 10 10 9 9 9 11 11 10 9 10 11 11 11 10 10 10 8 7 6 6 8 8 9 9 8 9 10 9 5 4 4 4 5 7 9 10 11 12 10 8 8 9 9 9 10 9 9 9 8 7 5 4 5 4 4 4 4 4 4 4 4 4 4 4 4 4 4 4 4 4 4 5 5 6 6 7 8 8 9 9 10 nan
nan 12 11 10 9 9 9 8 8 9 9 9 10 10 11 12 11 12 12 13 12 10 8 7 7 8 9 10 10 10 10 10 8 7 6 4 5 6 8 9 9 9 9 8 9 11 14 14 14 12 12 13 13 11 7 5 5 4 3 3 3 3 3 4 4 4 4 4 4 4 4 4 4 4 5 5 6 6 7 8 8 9 9 10 10 nan
nan 10 9 9 9 10 10 9 9 9 9 9 10 11 13 14 13 11 11 11 11 11 11 9 8 7 8 9 10 10 10 10 9 8 7 6 7 8 11 11 10 9 9 8 8 8 11 14 15 14 14 15 15 14 10 6 5 4 3 2 2 2 3 3 3 4 4 4 4 5 4 4 4 4 5 5 6 7 8 9 9 10 10 10 11 nan
nan 10 9 9 9 10 11 11 10 10 9 9 10 11 13 14 13 10 8 7 9 10 10 8 7 7 8 8 9 10 11 12 11 9 6 6 7 8 11 12 11 10 10 9 8 6 7 11 15 16 15 16 15 14 11 8 6 4 3 2 2 2 3 3 3 4 4 5 5 5 5 4 4 4 5 5 7 8 9 10 10 10 11 11 11 nan
nan 10 9 9 9 10 11 11 10 10 10 10 10 10 10 10 10 9 8 7 8 9 9 7 6 7 7 8 8 9 11 12 13 11 7 5 6 8 11 13 12 10 10 9 8 7 6 9 12 15 17 18 16 14 11 9 7 5 3 3 2 3 3 4 4 4 5 6 6 6 6 5 5 5 5 6 7 8 9 10 10 11 11 12 12 nan
nan 10 10 9 10 10 11 10 10 10 11 9 9 9 9 9 10 10 9 8 8 9 9 7 7 7 8 7 8 9 10 11 12 11 8 6 6 7 11 14 13 10 9 8 8 8 8 8 10 12 17 18 16 14 11 9 7 5 4 3 3 4 4 4 5 5 6 6 6 6 6 6 5 5 5 6 7 8 9 10 10 11 11 12 12 nan
nan 10 10 10 10 11 11 10 10 11 10 9 9 9 10 11 12 12 10 9 8 8 8 7 7 7 9 9 9 9 9 10 11 11 8 6 6 8 10 12 14 13 10 8 8 8 9 9 10 10 13 14 13 12 11 8 7 6 5 4 4 5 5 5 6 6 6 7 7 7 7 6 6 6 6 7 8 9 10 10 10 11 11 12 13 nan
nan 11 10 10 10 10 10 10 10 10 9 10 10 9 9 10 12 12 10 9 9 9 9 7 7 7 8 10 10 9 9 11 12 10 7 7 6 7 9 11 13 13 11 9 8 8 7 8 9 10 9 9 10 11 10 8 6 5 5 5 5 5 6 6 6 7 7 7 7 7 7 7 7 7 7 7 8 9 9 10 10 11 11 12 13 nan
nan 11 11 11 11 11 11 11 11 11 12 11 11 10 10 10 11 10 10 9 9 8 9 10 9 8 8 9 9 9 10 12 13 11 9 7 6 7 10 12 13 12 9 8 7 8 8 9 9 9 9 10 10 10 9 7 6 5 5 5 5 6 6 7 7 7 7 7 7 8 8 8 8 8 8 8 9 9 9 10 10 10 11 12 13 nan
nan 11 11 11 11 11 11 12 13 13 13 11 10 9 10 10 10 9 9 9 9 9 9 10 9 10 10 11 10 9 11 13 12 10 11 8 7 6 11 12 13 12 9 8 8 8 9 9 8 9 11 11 10 10 9 8 7 6 6 6 6 7 7 7 7 7 7 8 8 8 9 9 9 9 9 9 9 9 9 9 9 10 11 12 14 nan
nan 10 10 11 10 9 9 11 14 15 14 10 8 7 10 10 10 10 10 10 11 11 10 10 10 11 12 12 10 10 11 12 13 11 11 10 10 8 9 11 12 12 10 9 8 9 9 9 9 11 12 10 9 9 9 8 8 7 7 7 7 7 8 8 8 8 8 8 8 9 9 10 10 10 9 9 9 9 9 9 9 9 10 12 14 nan
nan 10 10 11 11 10 9 11 14 15 13 10 9 10 12 14 13 14 14 13 12 12 12 11 11 10 10 10 10 10 10 11 12 14 12 11 11 10 9 11 11 11 10 10 10 10 10 9 9 11 14 13 10 9 9 9 8 8 8 8 8 8 8 8 8 8 8 8 9 9 10 11 11 10 9 9 9 9 9 9 9 9 10 12 13 nan
nan 11 10 11 11 11 11 11 12 13 12 11 11 12 14 16 16 16 17 18 16 14 12 10 8 7 8 9 9 10 10 10 11 13 13 11 10 9 10 12 12 11 10 9 10 10 10 9 9 11 14 16 13 11 11 10 9 9 9 9 8 8 8 8 8 8 8 9 9 10 11 11 11 11 10 9 9 9 9 9 8 8 9 11 12 nan
nan 13 13 12 12 11 11 12 13 14 13 11 10 10 11 12 12 12 13 13 13 12 9 7 5 5 7 8 9 10 10 10 10 11 11 11 10 10 11 12 11 11 10 8 9 9 10 10 10 10 12 16 17 15 12 11 10 10 10 9 9 9 8 8 8 8 8 9 10 10 11 12 11 11 10 10 10 9 9 8 8 8 9 10 11 nan
nan 17 17 16 15 15 14 15 16 17 16 13 12 10 9 8 7 8 8 9 9 8 7 6 6 6 6 7 9 10 11 10 9 9 9 10 10 10 11 11 11 11 10 8 9 9 10 10 10 10 11 15 18 18 15 13 12 11 11 10 10 9 9 9 9 8 9 9 10 11 11 11 11 11 11 10 10 9 9 9 8 8 8 9 10 nan
nan 18 19 19 19 19 19 18 17 17 16 15 14 11 8 6 6 7 8 9 9 9 7 7 8 8 7 7 9 11 11 10 10 9 8 9 10 10 11 11 12 11 11 9 10 11 11 11 11 10 10 13 16 19 17 15 14 13 13 12 12 11 10 10 9 9 9 9 10 11 11 11 11 11 11 10 10 10 9 9 9 9 8 8 10 nan
nan 12 15 17 18 19 18 16 16 15 16 15 13 10 7 6 7 8 10 11 10 9 8 9 9 9 9 10 10 11 10 11 11 11 9 8 9 10 11 11 12 11 11 10 11 12 12 12 12 12 11 11 13 15 18 16 15 15 15 14 14 13 12 11 10 9 9 10 10 11 11 11 11 11 11 10 10 10 9 9 9 9 9 8 9 nan
nan 5 7 10 13 14 14 13 13 13 14 12 10 8 8 9 10 11 13 12 11 10 9 9 9 10 10 11 10 11 11 13 14 13 8 7 9 10 10 11 12 11 10 10 11 12 12 13 13 12 11 11 11 12 16 16 16 16 16 15 16 15 14 12 11 11 10 10 11 11 11 11 11 11 11 11 11 11 10 9 8 7 9 9 9 nan
nan 3 3 5 7 8 9 9 10 10 9 8 8 8 10 12 12 12 13 12 10 9 9 9 10 10 9 9 9 10 13 16 16 13 7 5 7 9 10 11 11 10 9 9 10 11 12 13 13 12 11 11 10 11 13 14 14 15 15 16 16 16 15 14 13 13 13 13 13 13 12 12 11 11 11 11 11 11 11 9 5 4 7 10 10 nan
nan 6 5 5 6 6 6 7 7 7 5 5 7 9 11 13 13 13 12 11 10 10 10 11 11 10 8 6 7 9 14 16 16 13 7 5 7 10 10 10 10 10 8 9 10 10 11 12 12 12 11 11 11 11 11 12 12 12 12 14 15 17 17 16 16 17 18 18 17 15 14 13 12 11 11 11 11 12 12 8 3 0 4 10 10 nan
nan 8 8 8 8 8 8 8 7 7 6 6 7 9 10 12 13 14 13 12 12 12 12 12 12 11 9 6 6 8 12 15 16 13 6 5 8 11 11 10 10 10 9 8 10 10 11 11 11 11 12 12 12 12 11 11 11 11 11 11 13 17 19 17 17 18 21 21 20 19 18 16 14 13 12 12 12 12 12 9 2 -2 2 8 10 nan
nan 9 9 9 9 9 9 9 9 9 8 9 9 9 10 11 12 12 13 12 13 13 14 14 13 12 11 8 7 8 11 16 17 14 7 5 8 10 11 11 10 10 9 8 9 10 11 10 10 11 12 12 12 12 12 11 11 11 11 11 11 14 17 16 16 16 18 19 19 20 20 18 17 17 15 14 13 13 13 10 4 -2 -2 4 9 nan
nan 9 9 9 9 9 9 9 9 9 9 9 9 9 10 10 10 11 11 11 12 12 13 14 14 13 12 11 10 9 10 15 17 15 8 4 7 10 12 11 10 9 8 8 8 9 9 9 9 9 11 11 12 12 12 12 12 11 11 11 11 12 14 14 14 14 13 13 14 15 15 16 17 19 19 17 17 16 15 12 8 2 -4 -2 4 nan
nan 8 8 8 8 8 8 8 8 8 8 8 8 9 9 10 10 10 10 10 10 11 12 13 13 14 13 12 11 10 11 15 16 14 8 5 7 9 11 12 11 9 8 8 8 8 9 9 9 8 8 9 11 12 13 13 12 11 11 11 11 11 12 13 12 13 11 10 10 10 10 11 13 16 18 19 18 18 17 15 12 7 1 -3 -2 nan
nan 8 8 8 8 8 8 8 8 8 7 7 8 8 9 9 9 9 9 9 10 10 10 11 12 12 13 13 12 12 13 15 16 14 9 6 6 7 9 12 12 11 9 9 8 8 8 9 9 9 8 8 9 11 13 12 11 10 10 11 11 10 10 12 12 12 11 10 10 10 10 10 11 12 15 16 17 18 19 19 16 12 8 3 -0 nan
nan 9 9 9 9 9 8 8 8 8 8 8 8 8 9 9 9 9 9 9 10 10 10 10 10 10 12 13 13 13 13 15 15 14 10 7 7 6 7 11 12 11 10 9 9 9 9 9 9 10 10 10 9 10 12 12 11 11 11 12 11 10 9 10 11 12 12 11 10 10 10 10 11 12 13 13 13 15 18 20 20 19 16 12 8 nan
nan 10 10 10 9 9 9 9 9 10 10 10 9 9 9 9 9 9 9 9 10 10 11 10 9 8 9 11 12 12 12 13 14 14 12 10 9 8 7 9 10 10 10 10 11 11 10 9 9 9 11 12 11 11 11 11 11 11 12 12 11 10 9 9 10 11 12 12 11 11 10 11 11 11 12 12 11 12 14 16 18 19 19 20 18 nan
nan 10 10 11 10 10 10 10 11 12 12 11 10 10 9 9 9 9 9 9 9 9 10 10 9 8 8 9 9 9 10 10 12 14 14 12 10 10 9 9 9 9 10 11 12 12 11 9 9 8 9 11 12 11 10 10 11 12 12 11 11 12 11 9 9 10 11 12 12 11 11 11 11 11 11 11 10 11 11 12 14 14 14 16 21 nan
nan 10 11 12 12 12 12 12 13 13 12 11 10 9 9 9 9 9 9 9 8 9 9 9 9 9 8 8 8 8 9 10 12 12 12 11 10 10 10 9 9 10 10 10 11 12 11 9 8 8 8 10 11 11 10 10 11 12 9 8 11 15 15 10 9 9 10 11 11 11 10 11 11 11 10 10 10 10 10 10 12 13 12 10 12 nan
nan 9 11 12 13 13 12 12 12 11 11 10 9 9 9 9 9 9 9 9 8 8 9 9 9 9 8 9 9 9 9 10 11 11 11 10 10 9 9 10 10 11 10 10 10 10 10 10 9 9 8 9 9 10 10 11 12 12 8 6 9 14 17 13 10 9 10 10 10 11 10 10 10 11 11 10 10 10 11 11 11 11 11 10 10 nan
nan 10 11 12 13 12 11 11 10 9 9 9 9 9 9 9 9 9 9 9 9 9 9 9 9 9 10 10 10 10 10 10 10 10 10 11 10 9 9 10 10 11 10 10 10 10 10 10 9 9 9 9 9 9 9 11 12 11 8 7 8 10 14 15 12 11 10 10 10 11 10 10 11 12 12 11 11 11 11 11 12 11 10 10 9 nan
nan 10 12 12 12 11 10 9 8 8 8 8 9 10 10 10 10 9 9 10 10 10 10 9 9 9 9 10 11 11 11 11 12 11 10 10 10 9 9 9 9 10 10 9 10 11 11 10 9 9 9 10 10 9 9 10 10 10 10 9 7 5 8 15 15 14 12 11 10 10 10 10 10 11 12 12 12 11 11 11 11 11 10 9 9 nan
nan 11 12 11 10 9 9 9 9 9 9 9 9 10 11 11 10 10 9 10 11 11 10 10 10 10 10 11 11 12 11 10 11 11 11 11 10 9 9 10 10 10 9 7 8 10 12 12 11 10 11 10 10 10 10 9 9 9 11 11 8 4 3 10 14 15 13 12 11 11 10 10 10 10 10 10 10 10 10 10 11 11 11 9 9 nan
nan 11 9 8 8 8 8 9 9 9 9 9 9 10 11 11 10 10 9 10 11 11 10 9 9 10 11 12 12 12 11 10 10 11 13 14 12 9 8 9 10 11 10 8 7 8 9 11 12 12 12 11 11 10 9 8 8 9 11 11 9 7 5 7 10 11 12 12 12 12 12 11 10 9 9 9 9 9 10 10 10 11 11 11 10 nan
nan 9 7 7 8 9 9 9 9 8 8 9 9 11 11 11 10 10 10 9 10 11 10 9 8 8 9 10 11 11 11 10 9 10 12 14 14 12 10 9 9 9 10 10 9 8 8 9 10 11 11 11 11 11 10 9 9 9 11 11 10 9 10 8 8 9 11 11 12 14 14 11 9 8 8 10 10 10 11 11 11 11 11 11 11 nan
nan 8 7 8 8 9 9 9 8 7 7 8 9 11 11 11 10 10 10 10 10 10 10 9 8 8 7 8 9 9 9 9 9 10 11 13 13 12 11 11 10 9 8 9 9 9 8 8 8 10 10 10 11 12 13 12 11 10 10 11 10 10 11 10 10 9 9 10 12 14 13 9 8 8 9 9 10 11 12 12 13 12 11 11 11 nan
nan 8 8 8 8 8 8 8 8 8 7 9 10 11 12 12 10 8 9 11 10 10 9 9 9 9 9 9 9 9 8 8 10 11 11 12 12 12 11 11 11 11 10 10 10 10 9 9 8 8 8 8 8 10 12 13 12 11 11 11 11 11 10 11 11 10 9 10 12 12 8 7 8 9 9 8 9 10 11 12 12 12 12 12 11 nan
nan 9 10 9 9 8 9 9 10 9 9 10 10 12 13 13 11 8 8 10 10 10 9 9 9 9 10 10 10 11 10 10 10 11 11 11 11 11 11 10 10 11 12 12 12 12 13 15 14 10 6 4 4 5 9 11 11 11 11 11 11 11 11 12 12 12 11 12 11 10 6 6 7 8 9 8 8 8 9 11 11 12 12 12 11 nan
nan 11 11 11 10 10 10 11 11 11 11 10 11 12 12 11 11 10 10 10 10 10 10 10 9 9 9 10 11 11 11 11 10 10 10 11 11 11 10 10 9 9 9 11 11 12 14 18 22 23 16 6 0 -1 5 8 10 11 11 11 11 11 11 11 12 13 12 12 11 10 8 6 7 7 9 10 10 9 9 10 11 12 12 12 12 nan
nan nan nan nan nan nan nan nan nan nan nan nan nan nan nan nan nan nan nan nan nan nan nan nan nan nan nan nan nan nan nan nan nan nan nan nan nan nan nan nan nan nan nan nan nan nan nan nan nan nan nan nan nan nan nan nan nan nan nan nan nan nan nan nan nan nan nan nan nan nan nan nan nan nan nan nan nan nan nan nan nan nan nan nan nan nan
CAPE
nan nan nan nan nan nan nan nan nan nan nan nan nan nan nan nan nan nan nan nan nan nan nan 10 10 15 5 3 5 5 7 5 2 2 1 2 3 3 3 2 2 2 2 3 3 4 4 6 6 7 9 10 11 11 12 14 14 15 20 25 25 24 24 21 21 20 17 16 13 13 9 5 2 2 nan nan nan nan nan nan nan nan nan nan nan nan
nan nan 0 0 0 nan nan nan nan nan nan nan nan nan 0 1 0 0 nan 1 1 1 3 13 13 14 19 13 7 7 6 6 3 3 2 3 4 4 4 5 5 3 2 2 2 3 3 3 3 3 5 7 7 7 9 13 13 13 14 21 21 25 26 27 27 26 21 20 15 15 8 3 nan nan nan nan nan nan nan nan nan nan nan nan nan nan
nan nan 0 0 0 0 0 0 0 0 nan nan nan nan 1 2 3 3 3 2 2 2 0 9 9 15 23 19 8 8 5 4 4 4 3 3 5 5 5 4 4 4 3 1 1 0 nan nan nan nan 0 2 3 3 5 9 9 11 11 15 15 17 17 22 22 20 19 16 9 9 5 0 nan nan nan nan nan nan nan nan nan nan nan nan nan nan
0 nan 1 1 1 1 1 0 0 0 1 0 0 0 2 3 4 4 6 3 3 nan nan nan nan 5 21 22 10 10 3 2 5 5 4 5 6 6 5 5 5 3 2 0 0 nan nan nan nan nan nan nan nan nan 1 2 2 8 9 9 9 7 1 1 1 2 3 1 nan nan nan nan nan nan nan nan nan nan nan nan nan nan nan nan nan nan
0 0 1 1 1 1 2 3 1 1 1 2 2 2 4 6 6 6 4 1 1 nan nan nan nan 0 0 10 8 8 2 4 5 5 4 6 6 6 6 6 6 3 1 nan nan nan nan nan nan nan nan nan nan nan nan nan nan 3 3 1 1 nan nan nan nan nan nan nan nan nan nan nan nan nan nan nan nan nan nan nan nan nan nan nan nan nan
0 1 2 2 2 2 3 2 3 3 4 3 4 4 6 7 4 4 2 1 1 0 0 0 0 0 0 2 7 7 2 4 4 4 5 5 6 6 8 6 6 3 2 0 0 nan nan nan nan nan nan nan nan nan nan nan nan nan nan nan nan nan nan nan nan nan nan nan nan nan nan nan nan nan nan nan nan nan nan nan nan nan nan nan nan nan
nan 1 3 2 2 2 2 1 3 3 3 3 4 4 3 2 2 2 2 1 1 1 1 0 0 0 0 0 7 7 1 3 4 4 5 7 9 9 9 7 7 5 4 2 2 1 0 0 0 nan nan nan nan nan nan nan nan nan nan nan nan nan nan nan nan nan nan nan nan nan nan nan nan nan nan nan nan nan nan nan nan nan nan nan nan nan
nan 0 2 2 2 1 1 1 2 2 3 2 2 2 2 1 1 1 2 1 1 1 2 1 1 0 0 nan nan nan 3 3 4 4 7 10 10 10 12 10 10 10 8 8 8 8 5 2 2 1 0 0 nan nan nan nan nan nan nan nan nan nan nan nan nan nan nan nan nan nan nan nan nan nan nan nan nan nan nan nan nan nan nan nan nan nan
8 0 1 0 0 0 1 1 3 3 4 4 4 4 3 2 3 3 2 2 2 1 1 1 1 0 0 nan nan nan 0 2 2 2 7 10 13 13 16 15 15 15 13 14 14 12 10 5 5 3 2 1 nan nan nan nan nan nan nan nan nan nan nan nan nan nan nan nan nan nan nan nan nan nan nan nan nan nan nan nan nan nan nan nan nan nan
5 1 1 1 1 3 1 2 5 5 6 5 5 5 7 5 3 3 3 2 2 1 1 1 1 0 0 nan 0 0 0 1 3 3 11 nan 16 16 12 13 13 16 15 16 16 14 13 9 9 6 4 4 1 1 nan nan nan nan nan nan nan nan nan nan nan nan nan nan nan nan nan nan nan nan nan nan nan nan nan nan nan nan nan nan nan nan
2 3 1 1 1 1 2 3 3 3 4 4 4 4 7 7 2 2 2 2 2 1 0 0 0 0 0 0 0 0 0 0 0 0 0 nan nan nan nan nan nan 5 12 9 9 11 10 8 8 8 7 6 4 4 nan nan nan nan nan nan nan nan nan nan nan nan nan nan nan nan nan nan nan nan nan nan nan nan nan nan nan nan nan nan nan nan
5 3 2 1 1 1 2 1 2 2 4 4 3 3 4 5 5 5 2 2 2 1 0 0 0 0 0 0 0 0 nan nan nan nan nan nan nan nan nan nan nan nan nan 2 2 3 4 3 3 7 8 10 7 7 1 nan nan nan nan nan nan nan nan nan nan nan nan nan nan nan nan nan nan nan nan nan nan nan nan nan nan nan nan nan nan nan
4 1 2 3 3 4 3 2 2 2 4 3 2 2 2 3 0 0 3 1 1 1 0 0 0 0 0 0 0 0 0 nan nan nan 0 0 0 0 nan nan nan nan nan nan nan nan nan 1 1 3 5 7 4 4 1 nan nan nan nan nan nan nan nan nan nan nan nan nan nan nan nan nan nan nan nan nan nan nan nan nan nan nan nan nan nan nan
2 1 2 5 5 6 5 2 2 2 3 4 7 7 6 1 0 0 0 0 0 0 nan 0 0 0 0 0 0 0 0 nan 0 0 0 0 0 0 nan nan nan 0 nan 0 0 nan nan nan nan 5 5 9 7 7 1 nan nan nan nan nan nan nan nan nan nan nan nan nan nan nan nan nan nan nan nan nan nan nan nan nan nan nan nan nan nan nan
3 2 2 3 3 4 4 2 2 2 3 0 0 0 0 1 1 1 0 0 0 0 0 0 0 0 0 0 0 0 0 0 0 0 0 0 0 0 nan nan nan nan nan 3 3 nan nan nan nan nan 3 10 8 8 1 1 1 nan nan nan nan nan nan nan nan nan nan nan nan nan nan nan nan nan nan nan nan nan nan nan nan nan nan nan nan nan
3 2 3 3 3 3 2 1 2 2 2 0 0 0 0 1 1 1 1 0 0 0 1 1 1 1 0 0 0 0 0 0 nan nan nan 0 0 0 0 0 0 0 0 nan nan nan nan nan nan nan nan 5 1 1 0 2 2 0 nan nan nan nan nan nan nan nan nan nan nan nan nan nan nan nan nan nan nan nan nan nan nan nan nan nan nan nan
5 3 2 5 5 3 1 1 2 2 1 0 0 0 0 1 1 1 1 nan nan 0 0 1 1 0 1 1 0 0 0 0 nan nan 0 0 0 0 nan nan nan 1 nan nan nan nan nan nan nan nan nan nan nan nan nan 1 1 1 1 2 2 1 1 1 1 nan nan nan nan nan nan nan nan nan nan nan nan nan nan nan nan nan nan nan nan nan
4 4 4 4 4 5 2 0 0 0 0 1 0 0 0 nan 0 0 0 nan nan 0 0 nan nan nan 0 0 0 0 0 0 0 0 0 0 nan nan nan nan nan nan nan nan nan nan nan nan nan nan nan nan nan nan nan nan nan 0 3 4 4 3 2 1 1 0 nan nan nan nan nan nan nan nan nan nan nan nan nan nan nan nan nan nan nan nan
4 4 5 4 4 6 2 0 1 1 1 0 1 1 0 0 nan nan 0 nan nan 0 0 nan nan nan nan 0 0 0 0 0 0 0 1 1 nan nan nan nan nan nan nan nan nan nan nan nan nan nan nan nan nan nan nan nan nan nan 0 1 1 2 1 0 0 nan nan nan 0 0 0 0 0 0 nan nan nan nan nan nan nan nan nan nan nan nan
3 4 4 7 7 5 2 2 1 1 1 0 1 1 1 1 1 1 0 nan nan nan nan 0 0 nan nan 0 0 0 0 0 0 0 1 4 nan nan nan nan nan nan nan nan nan nan nan nan nan nan nan nan nan nan nan nan nan nan nan nan nan nan nan nan nan nan nan nan nan nan 0 0 1 1 1 nan nan nan nan nan nan nan nan nan nan 0
3 3 3 3 3 4 4 3 2 2 1 1 2 2 1 0 1 1 nan nan nan nan nan nan nan nan nan 0 nan nan nan 0 nan nan 0 1 nan nan nan nan nan nan nan nan nan nan nan nan nan nan nan nan nan nan nan nan nan nan nan nan nan nan nan nan nan nan nan nan nan nan nan 0 1 1 1 0 0 0 0 0 0 0 0 0 0 0
3 3 5 3 3 3 5 7 5 5 2 0 3 3 2 1 1 1 1 0 0 0 1 nan nan nan nan nan nan nan nan 0 0 0 nan nan nan nan nan nan nan nan nan nan nan nan nan nan nan nan nan nan nan nan nan nan nan nan nan nan nan nan nan nan nan nan nan nan nan nan nan 0 1 1 2 1 1 1 1 1 1 1 1 1 1 1
4 2 0 nan nan 2 4 8 7 7 6 2 6 6 5 3 3 3 3 2 2 2 nan nan nan nan nan nan nan nan nan nan 0 0 0 nan 1 1 nan nan nan nan nan nan nan nan nan nan nan nan nan nan nan nan nan nan nan nan nan nan nan nan nan nan nan nan nan nan nan nan nan 0 2 2 4 2 2 2 1 1 1 2 1 1 1 3
nan nan nan nan nan nan 0 2 7 7 6 1 nan nan 0 nan nan nan 1 nan nan nan nan nan nan nan nan nan nan nan nan nan nan nan 1 1 nan nan nan nan nan nan nan nan nan nan nan nan nan nan nan nan nan nan nan nan nan nan nan nan nan nan nan nan nan nan nan nan nan nan nan 0 3 3 4 4 2 2 2 2 2 2 2 3 3 4
nan nan nan nan nan nan nan nan 3 3 3 nan nan nan nan nan nan nan nan nan nan nan nan nan nan nan nan nan nan nan nan nan nan nan 1 1 nan nan nan nan nan nan nan nan nan nan nan nan nan nan nan nan nan nan nan nan nan nan nan nan nan nan nan nan nan nan nan nan nan nan 0 1 3 3 5 5 4 4 3 3 3 3 3 3 3 4
nan nan nan nan nan nan nan nan 0 0 0 nan nan nan nan nan nan nan nan nan nan nan nan 0 0 1 nan nan nan nan nan nan nan nan nan nan nan nan nan nan nan nan nan nan nan nan nan nan nan nan nan nan nan nan nan nan nan nan nan nan nan nan nan nan nan nan nan nan 0 0 1 2 5 5 7 7 6 6 5 4 4 4 4 3 3 3
2 2 1 0 0 nan 0 1 1 1 0 nan nan nan nan nan nan nan nan nan nan nan 1 1 1 2 nan nan nan nan nan nan nan nan nan nan nan nan nan nan nan nan nan nan nan nan nan nan nan nan nan nan nan nan nan nan nan nan nan nan nan nan nan 0 0 0 0 0 0 0 1 4 7 7 9 9 7 7 5 5 5 5 5 3 3 4
1 1 2 2 2 2 2 2 2 2 2 1 0 0 nan nan 0 0 0 nan nan 0 1 2 2 2 0 nan nan nan nan nan nan nan nan nan nan nan nan nan nan nan nan nan nan nan nan nan nan nan nan nan nan nan nan nan nan nan nan nan nan nan nan nan nan 0 0 0 1 1 2 5 9 9 11 10 9 9 8 7 7 6 5 5 5 5
nan 0 1 2 2 2 3 3 3 3 3 3 2 2 1 0 1 1 0 nan nan 0 1 1 1 2 1 0 nan nan nan nan nan nan nan nan nan nan nan nan nan nan nan nan nan nan nan nan nan nan nan nan nan nan nan nan nan nan nan nan nan nan nan nan nan nan nan 0 1 1 3 6 10 10 11 11 11 11 10 11 11 9 6 4 4 5
nan nan nan 0 0 1 2 3 4 4 5 4 2 2 nan nan 1 1 nan nan nan 0 1 2 2 1 nan nan nan nan nan nan nan nan nan nan nan nan nan nan nan nan nan nan nan nan nan nan nan nan nan nan nan nan nan nan nan nan nan nan nan nan nan nan nan nan nan 0 2 2 4 7 11 11 11 11 12 12 12 16 16 14 8 5 5 7
nan nan nan nan nan nan nan 1 2 2 3 1 nan nan nan nan nan nan nan nan nan 1 2 3 3 1 nan nan 0 0 nan nan nan nan nan nan nan nan nan nan nan nan nan nan nan nan nan nan nan nan nan nan nan nan nan nan nan nan nan nan nan nan nan nan nan nan nan 1 2 2 5 8 11 11 11 12 12 12 15 22 22 22 12 9 9 10
nan nan nan nan nan nan nan nan nan nan nan nan nan nan nan nan nan nan nan nan nan nan 0 1 1 1 1 1 0 0 nan nan nan nan nan nan nan nan nan nan nan nan nan nan nan nan nan nan nan nan nan nan nan nan nan nan nan nan nan nan nan nan nan nan nan 1 1 4 5 5 5 6 8 8 10 11 12 12 16 19 19 19 15 10 10 10
nan nan nan nan nan nan nan nan nan nan nan nan nan nan nan nan nan nan nan nan nan nan nan nan nan nan nan 0 nan nan nan nan nan nan nan nan nan nan nan nan nan nan nan nan nan nan nan nan nan nan nan nan nan nan nan nan nan nan nan nan nan nan nan 0 0 0 2 5 6 6 5 4 6 6 10 10 12 12 15 19 19 21 18 9 9 9
nan nan nan nan nan nan nan nan nan nan nan nan nan nan nan nan nan nan nan nan nan nan nan nan nan nan nan nan nan nan nan nan nan nan nan nan nan nan nan nan nan nan nan nan nan nan nan nan nan nan nan nan nan nan nan nan nan nan nan nan nan nan nan nan nan nan 1 4 4 4 5 5 10 10 11 13 14 14 16 19 19 22 23 13 13 9
nan nan nan nan nan nan nan nan nan nan nan nan nan nan nan nan nan nan nan nan nan nan nan nan nan nan nan nan nan nan nan nan nan nan nan nan nan nan nan nan nan nan nan nan nan nan nan nan nan nan nan nan nan nan nan nan nan nan nan nan nan nan nan nan nan nan nan 1 1 1 3 4 5 5 9 12 13 13 16 21 21 25 25 20 20 12
nan nan nan nan nan nan nan nan nan nan nan nan nan nan nan nan nan nan nan nan nan nan nan nan nan nan nan nan nan nan nan nan nan nan nan nan nan nan nan nan nan nan nan nan nan nan nan nan nan nan nan nan nan nan nan nan nan nan nan nan nan nan nan nan nan nan nan nan nan nan 1 1 4 4 6 8 7 7 11 17 17 21 24 23 23 16
nan nan nan nan nan nan nan nan nan nan nan nan nan nan nan nan nan nan nan nan nan nan nan nan nan nan nan nan nan nan nan nan nan nan nan nan nan nan nan nan nan nan nan nan nan nan nan nan nan nan nan nan nan nan nan nan nan nan nan nan nan nan nan nan nan nan nan nan nan nan nan 0 2 2 5 6 3 3 6 11 11 15 19 23 23 19
nan nan nan nan nan nan nan 0 nan nan nan nan nan nan nan nan nan nan nan nan nan nan nan nan nan nan nan nan nan nan nan nan nan nan nan nan nan nan nan nan nan nan nan nan nan nan nan nan nan nan nan nan nan nan nan nan nan nan nan nan nan nan nan nan nan nan nan nan nan nan nan nan nan nan 2 5 4 4 6 7 7 10 14 16 16 18
nan nan nan nan nan nan nan nan nan nan nan nan nan nan nan nan nan nan nan nan nan nan nan nan nan nan nan nan nan nan nan nan nan nan nan 0 nan nan nan nan nan nan nan nan nan nan nan nan nan nan nan nan nan nan nan nan nan nan nan nan nan nan nan nan nan nan nan nan nan nan nan nan nan nan nan 0 2 2 3 4 4 7 9 10 10 16
nan nan nan nan nan nan nan nan nan nan nan nan nan nan nan nan nan nan nan nan nan nan nan nan nan nan nan nan nan nan nan nan nan nan 0 1 nan nan nan nan nan nan nan nan nan nan nan nan nan nan nan nan nan nan nan nan nan nan nan nan nan nan nan nan nan nan nan nan nan nan nan nan nan nan nan nan 0 0 2 2 2 4 6 6 6 7
nan nan nan nan nan nan nan nan nan nan nan nan nan nan nan nan nan nan nan nan nan nan nan nan nan nan nan nan nan nan nan nan nan nan 0 1 1 1 nan nan nan nan nan nan nan nan nan nan nan nan nan nan nan nan nan nan nan nan nan nan nan nan nan nan nan nan nan nan nan nan nan nan nan nan nan nan nan nan nan 1 1 2 3 4 4 3
nan nan nan nan nan nan nan nan nan nan nan nan nan nan nan nan nan nan nan nan nan nan nan nan nan nan nan nan nan nan nan nan nan nan 0 1 0 0 nan nan nan nan nan nan nan nan nan nan nan nan nan nan nan nan nan nan nan nan nan nan nan nan nan nan nan nan nan nan nan nan nan nan nan nan nan nan nan nan nan nan nan nan 0 0 0 2
1 1 1 nan nan nan nan nan nan nan nan nan nan nan nan nan nan nan nan nan nan nan nan nan nan nan nan nan nan nan nan nan nan nan nan 0 0 0 nan nan nan nan nan nan nan nan nan nan nan nan nan nan nan nan nan nan nan nan nan nan nan nan nan nan nan nan nan nan nan nan nan nan nan nan nan nan nan nan nan nan nan nan nan nan nan nan
4 4 1 nan nan nan nan nan nan nan nan nan nan nan nan nan nan nan nan nan nan nan nan nan nan nan nan nan nan nan nan nan nan nan nan nan nan nan nan nan nan nan nan nan nan nan nan nan nan nan nan nan nan nan nan nan nan nan nan nan nan nan nan nan nan nan nan nan nan nan nan nan nan nan nan nan nan nan nan nan nan nan nan nan nan nan
5 3 nan nan nan nan nan nan nan nan nan nan nan nan nan nan nan nan nan nan nan nan nan nan nan nan nan nan nan nan nan nan nan nan nan nan 0 0 nan nan nan nan nan nan nan nan nan nan nan nan nan nan nan nan nan nan nan nan nan nan nan nan nan nan nan nan nan nan nan nan nan nan nan nan nan nan nan nan nan nan nan nan nan nan nan nan
1 nan nan nan nan nan nan nan nan nan nan nan nan nan nan nan nan nan nan nan nan nan nan nan nan nan nan nan nan nan nan nan nan nan nan nan nan nan nan nan nan nan nan nan nan nan nan nan nan nan nan nan nan nan nan nan nan nan nan nan nan nan nan nan nan nan nan nan nan nan nan nan nan nan nan nan nan nan nan nan nan nan nan nan nan nan
nan nan 1 nan nan nan nan nan nan nan nan nan nan nan nan nan nan nan nan nan nan nan nan nan nan nan nan nan nan nan nan nan nan nan nan nan nan nan nan nan nan nan nan nan nan nan nan nan nan nan nan nan nan nan nan nan nan nan nan nan nan nan nan nan nan nan nan nan nan nan nan nan nan nan nan nan nan nan nan nan nan nan nan nan nan nan
1 2 3 1 1 nan nan 0 nan nan nan nan 0 0 nan nan nan nan nan nan nan nan nan nan nan nan nan nan nan nan nan nan nan nan nan nan nan nan nan nan nan nan nan nan nan nan nan nan nan nan nan nan nan nan nan nan nan nan nan nan nan nan nan nan nan nan nan nan nan nan nan nan nan nan nan nan nan nan nan nan nan nan nan nan nan nan
2 3 4 4 4 2 2 2 1 1 0 0 1 1 1 nan nan nan nan nan nan nan nan nan nan nan nan nan nan nan nan nan nan nan nan nan nan nan nan nan nan nan nan nan nan nan nan nan nan nan nan nan nan nan nan nan nan nan nan nan nan nan nan nan nan nan nan nan nan nan nan nan nan nan nan nan nan nan nan nan nan nan nan nan nan nan
2 2 3 3 3 2 2 2 1 1 0 0 1 1 1 nan nan nan nan nan nan nan nan nan nan nan nan nan nan nan nan nan nan nan nan nan nan nan nan nan nan nan nan nan nan nan nan nan nan nan nan nan nan nan nan nan nan nan nan nan nan nan nan nan nan nan nan nan nan nan nan nan nan nan nan nan nan nan nan nan nan nan nan nan nan nan
3 3 2 2 2 2 1 1 1 1 0 0 1 1 1 nan nan nan nan nan nan nan nan nan nan nan nan nan nan nan nan nan nan nan nan nan nan nan nan nan nan nan nan nan nan nan nan nan nan nan nan 1 nan nan nan nan nan nan nan nan nan nan nan nan nan nan nan nan nan nan nan nan nan nan nan nan nan nan nan nan nan nan nan nan nan nan